CAPE
0 0 0 0 0 0 0 0 0 0 0 11 46 166 156 181 107 85 253 222 352 291 629 642 521 603 554 305 282 202 678 736 678 1051 898 1161 662 856 330 187 1316 1423 1612 1757
0 0 0 0 0 0 0 0 0 0 0 11 11 104 177 151 179 158 305 315 261 325 259 565 595 512 257 439 93 495 565 876 673 966 581 939 1103 702 388 187 317 1862 1601 1659
0 0 0 0 0 0 0 0 0 0 0 0 23 98 98 100 78 81 260 8 243 338 247 281 195 246 196 320 296 288 561 1080 792 951 866 832 947 504 391 263 104 1485 1215 1277
0 0 0 0 0 0 0 0 0 0 0 0 4 25 104 34 113 123 152 75 89 237 194 288 169 268 266 368 571 198 961 1458 961 1245 977 794 555 486 676 133 234 802 1282 1646
0 0 0 0 0 0 0 0 0 0 0 1 3 3 51 166 133 138 98 240 99 345 244 236 228 310 377 444 611 545 691 1355 1300 938 958 976 687 537 172 323 114 516 773 948
0 0 0 0 0 0 0 0 0 0 0 0 0 8 0 87 211 262 117 379 364 613 308 263 356 309 313 516 680 865 717 1209 1174 1230 1059 676 867 472 419 81 191 585 1495 1473
0 0 0 0 0 0 0 0 0 0 0 0 0 0 0 22 81 131 101 406 549 603 406 451 405 266 275 439 628 995 952 975 1586 1011 886 1429 674 684 245 271 155 764 1770 1804
0 0 0 0 0 0 0 0 0 0 0 0 0 0 0 0 9 81 152 228 580 578 521 553 520 418 269 237 655 981 1220 1120 1321 1590 1108 698 1589 888 631 912 1251 268 1324 1823
0 0 0 0 0 0 0 0 0 0 0 0 0 0 0 0 0 0 7 99 587 564 618 602 610 583 444 290 551 901 1337 1244 1291 1517 1572 1149 689 1711 1205 387 901 1485 613 1224
0 0 0 0 0 0 0 0 0 0 0 0 0 0 0 0 0 0 0 2 93 616 727 708 670 686 598 483 417 628 1316 1413 1491 1377 1642 1727 1312 789 1884 1510 634 752 1371 1283
0 0 0 0 6 0 0 0 0 0 0 0 0 0 0 0 0 6 0 0 1 545 763 819 754 735 677 569 510 548 1085 1631 1810 1879 1569 1891 1912 1510 971 1999 1607 855 1150 1442
0 0 0 0 0 0 0 0 0 0 0 0 0 0 0 0 0 0 4 0 10 212 829 899 890 767 743 653 610 569 904 1596 1874 2098 2095 1900 2186 2250 1732 1193 1854 1837 827 1649
0 0 0 0 0 0 0 0 0 0 0 0 0 0 0 0 0 0 0 0 0 109 886 947 1020 895 826 708 665 638 648 1481 1924 2339 2416 2487 2392 2530 2533 1875 1282 1699 1639 1031
0 0 0 0 0 0 0 0 0 0 0 0 0 0 0 0 0 0 0 0 0 34 784 953 1115 1015 953 812 742 721 681 1001 2090 2343 2608 2704 2720 2710 2751 2720 2244 1568 1906 1780
0 0 0 0 0 0 1 0 0 0 0 0 0 0 0 0 0 26 0 0 0 70 419 839 1045 1145 1117 980 857 813 763 892 1325 2432 2651 2770 2880 2928 2951 2910 3002 2724 2014 2353
0 0 0 0 0 1 18 0 0 0 0 0 0 0 0 0 10 0 0 35 325 205 432 661 930 1121 1215 1226 1043 948 887 933 1092 1343 2647 2861 2995 3064 3120 3205 3130 3223 3147 2584
0 0 0 0 1 14 0 0 0 0 0 0 0 0 0 2 4 0 0 0 17 30 40 201 502 993 1318 1381 1452 1282 1102 1153 1344 1519 1598 2543 3053 3143 3185 3305 3335 3322 3340 3322
0 0 0 1 26 1 0 7 11 0 0 0 0 5 0 17 32 0 0 0 0 19 31 102 292 675 797 1797 1734 1588 1689 1769 1457 1610 1909 1950 2684 3175 3168 3221 3390 3404 3404 3416
0 0 0 18 19 0 1 11 11 5 1 42 173 90 46 50 180 187 69 43 184 250 338 274 180 179 299 283 1037 2223 1963 2217 2349 2038 2449 2349 2810 3023 3208 3167 3292 3396 3393 3377
0 0 0 5 2 20 64 2 3 0 16 21 290 413 55 156 166 134 107 150 146 171 194 458 739 443 380 623 273 1669 2542 2338 2404 2591 2924 3028 3025 3192 3164 3363 3376 3605 3518 3467
0 0 9 0 7 23 18 0 1 6 5 17 272 205 254 16 4 4 32 42 83 149 213 420 711 1069 1501 793 599 356 1445 2693 2693 2429 2459 2967 3420 3439 3429 3386 3540 3619 3761 3725
0 1 23 13 31 44 3 0 3 0 0 5 141 281 103 4 0 0 1 11 0 25 51 308 620 787 1217 1412 1141 774 858 905 2078 2968 3031 3011 3099 3247 3602 3638 3658 3790 3827 3938
0 0 8 22 44 1 0 0 0 6 20 12 33 179 7 18 0 0 0 0 0 0 15 32 642 1654 1986 2824 2889 1784 1761 3233 3284 3550 3275 3354 3261 3421 2897 3788 3818 3825 3911 3953
0 0 0 0 0 0 0 0 0 8 2 1 0 0 0 0 0 0 0 0 0 0 0 149 1323 1618 1620 2306 4205 4178 3256 2912 3161 2843 3450 3887 3597 3831 3432 3778 3863 4081 4137 4125
0 0 0 0 0 0 0 0 0 0 0 0 0 0 0 0 0 0 0 0 0 0 0 354 1347 1542 1594 2260 2978 3555 3641 3935 4232 3160 3913 4543 4037 3971 3861 3458 4089 4013 4071 4199
0 0 0 0 0 0 0 0 0 0 0 0 0 0 0 0 0 0 0 0 0 0 0 0 235 721 1277 1792 2119 2999 2855 3255 3619 4379 3824 4510 4305 4048 4013 3741 3312 3847 3951 4015
CIN
0 0 0 0 0 0 0 0 0 0 0 -5 -10 -153 -60 -51 -50 -385 -225 -36 -25 -16 -28 -34 -39 -40 -18 -73 -79 -129 -98 -133 -122 -83 -70 -43 -92 -58 -70 -90 -53 -65 -77 -49
0 0 0 0 0 0 0 0 0 0 0 -1 -9 -116 -287 -295 -388 -331 -236 -72 -41 -39 -5 -11 -10 -13 -44 -92 -140 -88 -104 -142 -147 -105 -139 -80 -58 -80 -83 -119 -115 -48 -40 -54
0 0 0 0 0 0 0 0 0 0 0 0 -3 -91 -122 -150 -241 -255 -250 -79 -38 -31 -49 -46 -28 -36 -85 -119 -173 -168 -159 -133 -159 -130 -110 -79 -43 -92 -108 -148 -170 -30 -41 -51
0 0 0 0 0 0 0 0 0 0 0 -1 -8 -3 -218 -269 -327 -39 -178 -444 -393 -108 -61 -64 -71 -73 -144 -162 -155 -206 -128 -99 -146 -89 -107 -113 -151 -131 -119 -200 -170 -113 -32 -40
0 0 0 0 0 0 0 0 0 0 0 -30 -1 -9 -76 -266 -168 -96 -91 -46 -36 -113 -105 -122 -111 -133 -142 -164 -166 -210 -152 -91 -95 -133 -123 -122 -148 -144 -192 -148 -227 -171 -115 -109
0 0 0 0 0 0 0 0 0 0 0 0 0 -3 -2 -133 -180 -103 -168 -45 -44 -137 -129 -91 -152 -143 -159 -167 -148 -158 -174 -113 -113 -105 -155 -187 -146 -159 -173 -277 -242 -183 -90 -68
0 0 0 0 0 0 0 0 0 0 0 0 0 0 0 -8 -66 -78 -183 -72 -93 -118 -96 -81 -190 -146 -191 -217 -198 -167 -172 -163 -87 -142 -166 -112 -201 -174 -257 -232 -257 -159 -60 -48
0 0 0 0 0 0 0 0 0 0 0 0 0 0 0 0 -4 -26 -80 -55 -87 -86 -88 -83 -89 -82 -151 -279 -228 -196 -196 -196 -168 -138 -190 -245 -99 -197 -212 -157 -110 -237 -69 -35
0 0 0 0 0 0 0 0 0 0 0 0 0 0 0 0 0 0 -30 -10 -62 -85 -107 -111 -87 -91 -80 -193 -297 -257 -235 -233 -234 -217 -196 -226 -275 -121 -156 -288 -179 -64 -181 -59
0 0 0 0 0 0 0 0 0 0 0 0 0 0 0 0 0 0 0 -8 -18 -74 -110 -112 -94 -92 -66 -89 -311 -307 -280 -263 -252 -243 -192 -181 -248 -299 -130 -108 -254 -192 -103 -62
0 0 0 0 -5 0 0 0 0 0 0 0 0 0 0 0 0 -12 0 0 -9 -78 -105 -116 -116 -107 -71 -64 -101 -327 -308 -237 -193 -170 -215 -184 -185 -218 -254 -98 -105 -205 -144 -46
0 0 0 0 0 0 0 0 0 0 0 0 0 0 0 0 0 0 -9 0 -32 -54 -105 -124 -148 -103 -98 -76 -87 -110 -338 -285 -248 -204 -188 -187 -139 -125 -167 -232 -129 -95 -239 -150
0 0 0 0 0 0 0 0 0 0 0 0 0 0 0 0 0 0 0 0 0 -47 -70 -104 -131 -172 -125 -91 -50 -73 -142 -314 -266 -188 -147 -132 -128 -114 -116 -182 -245 -177 -134 -214
0 0 0 0 0 0 0 0 0 0 0 0 0 0 0 0 0 0 0 0 0 -100 -47 -67 -100 -134 -183 -106 -56 -43 -59 -286 -258 -229 -196 -163 -149 -137 -135 -149 -182 -239 -189 -142
0 0 0 0 0 0 -1 0 0 0 0 0 0 0 0 0 0 -136 0 0 0 -93 -44 -41 -65 -113 -142 -144 -80 -66 -52 -291 -273 -260 -229 -229 -198 -175 -155 -143 -125 -147 -208 -165
0 0 0 0 0 -2 -5 0 0 0 0 0 0 0 0 0 -118 0 0 -182 -128 -151 -142 -29 -32 -65 -115 -150 -102 -92 -76 -295 -275 -297 -273 -251 -229 -203 -193 -174 -160 -139 -158 -180
0 0 0 0 -2 -4 0 0 0 0 0 0 0 0 0 -38 -148 0 0 0 -115 -86 -44 -26 -19 -59 -98 -108 -188 -229 -234 -244 -280 -328 -323 -267 -251 -243 -234 -213 -173 -171 -169 -153
0 0 0 0 -1 -2 0 -6 -38 0 0 0 0 -96 0 -97 -220 -4 0 0 0 -140 -89 -20 -11 -23 -33 -115 -164 -160 -188 -253 -285 -291 -332 -319 -309 -275 -261 -242 -229 -213 -200 -188
0 0 0 -1 -2 0 -1 -2 -12 -34 -142 -202 -227 -61 -87 -150 -266 -324 -229 -302 -365 -362 -344 -384 -335 -23 -29 -39 -48 -145 -164 -217 -262 -278 -309 -340 -346 -316 -299 -300 -266 -239 -217 -214
0 0 0 -3 -6 -2 -5 -14 -15 0 -71 -179 -267 -283 -74 -233 -265 -322 -376 -417 -480 -517 -509 -362 -298 -327 -310 -291 -364 -206 -131 -175 -185 -209 -286 -318 -291 -292 -323 -317 -293 -242 -235 -234
0 0 -3 0 -1 -3 -37 0 -12 -39 -12 -206 -172 -198 -94 -121 -210 -295 -412 -429 -502 -624 -456 -361 -290 -249 -236 -312 -360 -396 -83 -111 -176 -211 -246 -254 -249 -275 -295 -288 -275 -250 -213 -198
0 -3 -3 -6 -3 -4 -72 0 -25 0 0 -143 -116 -104 -148 -124 0 0 -185 -575 0 -563 -709 -430 -292 -271 -287 -341 -288 -319 -319 -182 -267 -154 -168 -217 -260 -251 -253 -254 -254 -227 -194 -173
0 0 -2 -9 -25 -2 0 0 0 0 -9 -55 -91 -117 -173 -239 0 0 0 0 0 0 -875 -932 -310 -201 -253 -164 -137 -212 -279 -161 -152 -149 -178 -227 -237 -234 -203 -202 -210 -195 -175 -157
0 0 0 0 0 0 0 0 0 0 -43 -26 0 0 0 0 0 0 0 0 0 0 0 -469 -186 -176 -166 -129 -50 -85 -124 -153 -163 -172 -185 -153 -207 -232 -186 -206 -156 -127 -113 -112
0 0 0 0 0 0 0 0 0 0 0 0 0 0 0 0 0 0 0 0 0 0 0 -298 -155 -132 -117 -84 -47 -44 -113 -142 -120 -143 -174 -108 -166 -199 -171 -148 -100 -106 -88 -91
0 0 0 0 0 0 0 0 0 0 0 0 0 0 0 0 0 0 0 0 0 0 0 0 -237 -181 -126 -83 -57 -41 -89 -102 -113 -69 -128 -66 -101 -135 -132 -133 -151 -77 -78 -85
Wind_Speed
nan nan nan nan nan nan nan nan nan nan nan nan nan 37 33 31 38 nan 29 12 14 26 27 17 14 8 10 11 8 7 10 6 7 11 11 14 11 11 8 6 1 4 6 8
nan nan nan nan nan nan nan nan nan nan nan nan nan 23 32 37 41 48 33 20 18 27 23 19 16 10 8 9 nan 10 11 7 8 11 11 13 10 9 7 6 3 3 4 5
nan nan nan nan nan nan nan nan nan nan nan nan nan nan nan 28 nan nan 43 nan 17 16 25 16 16 10 11 8 8 7 10 10 10 11 12 12 12 11 10 8 6 1 3 5
nan nan nan nan nan nan nan nan nan nan nan nan nan nan 28 nan 35 38 41 nan nan 29 21 17 15 12 11 8 9 9 12 13 11 11 8 5 7 8 8 5 5 3 3 4
nan nan nan nan nan nan nan nan nan nan nan nan nan nan nan 28 29 29 nan 31 nan 28 22 21 17 12 11 10 9 10 11 12 10 7 9 10 8 8 7 8 4 2 1 2
nan nan nan nan nan nan nan nan nan nan nan nan nan nan nan nan 30 22 24 27 32 29 22 20 16 11 10 12 11 11 10 10 9 9 11 4 5 6 8 nan 5 4 2 3
nan nan nan nan nan nan nan nan nan nan nan nan nan nan nan nan nan 37 29 32 37 30 29 22 20 14 9 12 12 12 11 7 8 7 4 8 4 5 4 4 3 4 4 4
nan nan nan nan nan nan nan nan nan nan nan nan nan nan nan nan nan nan 32 41 36 39 29 23 21 16 12 11 13 14 12 9 6 7 6 2 2 3 2 3 3 1 5 9
nan nan nan nan nan nan nan nan nan nan nan nan nan nan nan nan nan nan nan nan 33 35 32 32 16 15 14 10 12 13 13 8 4 4 6 3 3 1 2 4 3 5 5 9
nan nan nan nan nan nan nan nan nan nan nan nan nan nan nan nan nan nan nan nan nan 35 34 11 13 13 12 11 11 12 12 9 4 4 5 2 3 4 2 5 6 9 9 7
nan nan nan nan nan nan nan nan nan nan nan nan nan nan nan nan nan nan nan nan nan 35 30 15 12 13 15 13 13 12 13 11 8 6 3 2 2 1 4 8 10 11 14 11
nan nan nan nan nan nan nan nan nan nan nan nan nan nan nan nan nan nan nan nan nan 33 34 27 10 14 18 15 15 11 12 10 6 3 3 1 2 5 6 8 8 9 8 3
nan nan nan nan nan nan nan nan nan nan nan nan nan nan nan nan nan nan nan nan nan 36 37 31 19 10 15 15 14 12 9 9 7 7 3 4 5 7 5 11 13 9 9 10
nan nan nan nan nan nan nan nan nan nan nan nan nan nan nan nan nan nan nan nan nan nan 42 39 24 13 10 13 12 11 9 8 9 7 5 4 6 7 5 8 11 10 8 10
nan nan nan nan nan nan nan nan nan nan nan nan nan nan nan nan nan nan nan nan nan nan 27 37 27 17 15 14 11 11 10 8 9 8 5 6 8 8 7 4 7 11 11 10
nan nan nan nan nan nan nan nan nan nan nan nan nan nan nan nan nan nan nan nan 36 36 44 34 28 22 21 17 15 9 7 6 6 3 4 5 8 9 11 8 5 9 12 15
nan nan nan nan nan nan nan nan nan nan nan nan nan nan nan nan nan nan nan nan nan nan nan 45 49 36 23 16 17 15 9 10 7 5 1 4 7 9 10 12 10 11 13 14
nan nan nan nan nan nan nan nan nan nan nan nan nan nan nan nan nan nan nan nan nan nan nan 52 46 41 32 20 11 8 18 14 9 6 5 3 5 6 8 11 17 16 15 17
nan nan nan nan nan nan nan nan nan nan nan nan 55 nan nan nan 53 51 nan nan 47 48 44 43 41 35 36 34 28 20 17 15 14 8 8 6 6 6 7 11 13 16 17 17
nan nan nan nan nan nan nan nan nan nan nan nan 71 60 nan 55 51 45 51 61 54 49 47 47 40 33 32 33 34 26 17 13 10 11 13 17 12 9 8 13 16 17 18 20
nan nan nan nan nan nan nan nan nan nan nan nan 75 66 69 nan nan nan nan nan nan 48 46 45 45 43 38 36 37 34 32 28 17 17 20 21 19 15 15 14 16 21 22 22
nan nan nan nan nan nan nan nan nan nan nan nan 77 71 76 nan nan nan nan nan nan nan nan 44 41 38 37 39 37 34 29 21 20 17 14 15 20 24 26 23 20 22 27 28
nan nan nan nan nan nan nan nan nan nan nan nan nan 75 nan nan nan nan nan nan nan nan nan nan 44 44 40 38 32 29 23 24 30 31 23 27 28 29 31 31 26 27 27 28
nan nan nan nan nan nan nan nan nan nan nan nan nan nan nan nan nan nan nan nan nan nan nan 47 48 47 42 40 37 28 26 24 25 32 35 31 29 33 34 36 31 28 27 28
nan nan nan nan nan nan nan nan nan nan nan nan nan nan nan nan nan nan nan nan nan nan nan 49 47 45 45 39 35 32 31 33 28 24 27 26 29 28 35 39 30 25 33 29
nan nan nan nan nan nan nan nan nan nan nan nan nan nan nan nan nan nan nan nan nan nan nan nan 52 47 43 40 38 32 33 34 33 29 28 28 30 32 37 37 39 47 43 38
Wind_Direction
nan nan nan nan nan nan nan nan nan nan nan nan nan 271 293 298 309 nan 301 200 53 13 10 7 14 347 281 240 251 271 239 234 207 188 189 178 156 147 138 133 117 10 34 30
nan nan nan nan nan nan nan nan nan nan nan nan nan 268 294 303 318 296 293 163 116 13 16 356 349 341 304 257 nan 234 233 243 208 199 189 177 165 157 162 159 151 50 12 14
nan nan nan nan nan nan nan nan nan nan nan nan nan nan nan 267 nan nan 293 nan 83 66 19 4 349 332 301 264 282 252 238 234 216 212 194 179 177 179 189 166 145 118 351 10
nan nan nan nan nan nan nan nan nan nan nan nan nan nan 274 nan 284 295 311 nan nan 18 27 9 9 321 313 268 258 271 241 234 220 221 204 179 181 191 180 173 176 213 5 3
nan nan nan nan nan nan nan nan nan nan nan nan nan nan nan 290 270 303 nan 349 nan 11 25 9 5 337 306 269 264 267 263 247 240 223 217 203 196 199 197 202 225 255 52 347
nan nan nan nan nan nan nan nan nan nan nan nan nan nan nan nan 303 324 328 344 5 25 24 5 350 323 301 271 271 279 283 268 252 238 231 207 201 212 216 nan 229 216 226 332
nan nan nan nan nan nan nan nan nan nan nan nan nan nan nan nan nan 321 333 336 359 23 16 355 342 330 296 293 294 287 310 289 265 274 247 221 216 242 255 250 281 290 270 320
nan nan nan nan nan nan nan nan nan nan nan nan nan nan nan nan nan nan 318 322 344 339 341 6 342 338 319 301 297 301 307 312 300 283 294 311 233 259 273 266 247 260 302 319
nan nan nan nan nan nan nan nan nan nan nan nan nan nan nan nan nan nan nan nan 315 322 328 335 347 337 326 299 307 315 313 309 323 313 281 333 343 323 4 24 285 273 294 297
nan nan nan nan nan nan nan nan nan nan nan nan nan nan nan nan nan nan nan nan nan 312 317 339 355 335 319 321 296 297 304 317 282 259 249 274 23 38 257 298 291 283 268 267
nan nan nan nan nan nan nan nan nan nan nan nan nan nan nan nan nan nan nan nan nan 294 314 4 360 345 329 315 288 288 288 302 301 315 338 12 53 32 344 279 299 291 278 277
nan nan nan nan nan nan nan nan nan nan nan nan nan nan nan nan nan nan nan nan nan 275 299 311 354 355 322 314 291 294 286 301 307 273 239 143 270 329 334 352 321 354 15 349
nan nan nan nan nan nan nan nan nan nan nan nan nan nan nan nan nan nan nan nan nan 240 274 288 298 346 328 318 309 297 301 294 282 277 271 284 329 333 329 2 7 353 21 27
nan nan nan nan nan nan nan nan nan nan nan nan nan nan nan nan nan nan nan nan nan nan 259 274 281 297 317 323 302 297 285 279 279 271 282 316 327 345 332 347 359 6 354 8
nan nan nan nan nan nan nan nan nan nan nan nan nan nan nan nan nan nan nan nan nan nan 257 259 276 283 292 310 279 275 287 295 293 299 328 338 322 327 323 335 356 13 14 4
nan nan nan nan nan nan nan nan nan nan nan nan nan nan nan nan nan nan nan nan 253 240 228 241 253 277 285 294 270 246 268 291 288 290 8 342 334 337 349 337 349 9 14 18
nan nan nan nan nan nan nan nan nan nan nan nan nan nan nan nan nan nan nan nan nan nan nan 226 232 251 268 286 255 251 227 238 237 237 313 341 329 344 9 2 354 4 1 357
nan nan nan nan nan nan nan nan nan nan nan nan nan nan nan nan nan nan nan nan nan nan nan 214 220 226 240 258 276 286 248 229 239 252 256 283 313 356 345 2 11 3 350 354
nan nan nan nan nan nan nan nan nan nan nan nan 180 nan nan nan 233 218 nan nan 227 232 230 230 232 234 230 226 201 200 224 243 246 241 228 232 248 303 332 360 354 342 335 334
nan nan nan nan nan nan nan nan nan nan nan nan 192 208 nan 229 230 220 217 214 213 218 222 226 228 235 231 237 236 227 218 254 271 263 243 240 248 268 318 330 330 323 331 338
nan nan nan nan nan nan nan nan nan nan nan nan 196 202 212 nan nan nan nan nan nan 214 216 219 222 220 213 221 227 231 232 225 223 246 255 252 260 275 281 286 294 299 307 310
nan nan nan nan nan nan nan nan nan nan nan nan 196 199 211 nan nan nan nan nan nan nan nan 215 215 212 209 218 231 227 237 237 231 244 248 264 265 262 256 268 273 279 290 298
nan nan nan nan nan nan nan nan nan nan nan nan nan 199 nan nan nan nan nan nan nan nan nan nan 212 208 205 206 213 232 222 217 216 219 229 253 259 258 257 261 257 265 273 282
nan nan nan nan nan nan nan nan nan nan nan nan nan nan nan nan nan nan nan nan nan nan nan 216 212 211 209 216 219 218 229 234 213 208 209 222 240 246 253 255 262 261 262 266
nan nan nan nan nan nan nan nan nan nan nan nan nan nan nan nan nan nan nan nan nan nan nan 218 220 215 211 217 217 222 221 222 221 226 219 227 238 251 252 249 246 260 252 258
nan nan nan nan nan nan nan nan nan nan nan nan nan nan nan nan nan nan nan nan nan nan nan nan 220 218 215 213 219 227 229 229 224 227 236 244 250 253 253 256 255 245 252 250